AirNav   Air Wisconsin Up To $57,000 Bonus
 
 1608 users online  

O53 Medford Municipal Airport
Medford, Oklahoma, USA

GOING TO MEDFORD?


FAA INFORMATION EFFECTIVE 02 JANUARY 2020

Location

FAA Identifier: O53
Lat/Long: 36-47-26.1030N 097-44-56.3900W
36-47.435050N 097-44.939833W
36.7905842,-97.7489972
(estimated)
Elevation: 1092 ft. / 332.8 m (surveyed)
Variation: 05E (2005)
From city: 1 mile SW of MEDFORD, OK
Time zone: UTC -6 (UTC -5 during Daylight Saving Time)
Zip code: 73759

Airport Operations

Airport use: Open to the public
Activation date: 03/1948
Control tower: no
ARTCC: KANSAS CITY CENTER
FSS: MC ALESTER FLIGHT SERVICE STATION
NOTAMs facility: MLC (NOTAM-D service available)
Attendance: IREG
Wind indicator: lighted
Segmented circle: yes
Lights: DUSK-DAWN ACTVT MIRL RY 17/35 - CTAF.
Beacon: white-green (lighted land airport)
Operates sunset to sunrise.

Airport Communications

CTAF/UNICOM: 122.8
VANCE APPROACH: 118.075
VANCE DEPARTURE: 118.075
WX AWOS-3 at BKN (19 nm E): 120.575 (580-363-0688)
  • APCH/DEP SVC PRVDD BY KANSAS CITY ARTCC ON FREQS 127.8/319.1 (PONCA CITY RCAG) WHEN VANCE APCH CTL CLSD.

Nearby radio navigation aids

VOR radial/distance  VOR name  Freq  Var
ODGr356/25.1WOODRING VOR/DME109.0008E
ENDr012/28.0VANCE VORTAC115.4005E
PERr269/28.4PIONEER VORTAC113.2006E
ANYr131/30.0ANTHONY VORTAC112.9007E

Airport Services

Fuel available: 100LL
FOR FUEL CALL ARPT ATTENDANT 580-395-3176 OR SHERIFF'S OFFICE 580-395-2356.
Parking: hangars and tiedowns
Airframe service: NONE
Powerplant service: NONE
Bottled oxygen: NONE
Bulk oxygen: NONE

Runway Information

Runway 17/35

Dimensions: 3007 x 60 ft. / 917 x 18 m
Surface: asphalt, in good condition
Weight bearing capacity: 
Single wheel: 13.0
Runway edge lights: medium intensity
RUNWAY 17  RUNWAY 35
Latitude: 36-47.682800N36-47.187317N
Longitude: 097-44.939367W097-44.940900W
Elevation: 1092.0 ft.1085.0 ft.
Traffic pattern: leftleft
Runway heading: 175 magnetic, 180 true355 magnetic, 360 true
Markings: nonprecision, in good conditionnonprecision, in good condition
Visual slope indicator: 2-light PAPI on left (3.51 degrees glide path)2-light PAPI on left (3.51 degrees glide path)
Touchdown point: yes, no lightsyes, no lights

Airport Ownership and Management from official FAA records

Ownership: Publicly-owned
Owner: CITY OF MEDFORD
615 N. FRONT ST.
MEDFORD, OK 73759
Phone 580-395-2875
Manager: DEA MANDEVILL
615 N. FRONT ST., PO BOX 123
MEDFORD, OK 73759
Phone 580-395-2875
CITY MANAGER.

Airport Operational Statistics

Aircraft based on the field: 9
Single engine airplanes: 9
    
Aircraft operations: avg 83/month *
60% local general aviation
40% transient general aviation
* for 12-month period ending 24 April 2019

Additional Remarks

100 FT REFINERY 1 NM SW OF ARPT.
FOR CD CTC VANCE APCH AT 580-213-6765. WHEN VANCE APCH IS CLSD, CTC KANSAS CITY ARTCC AT 913-254-8508.

Instrument Procedures

NOTE: All procedures below are presented as PDF files. If you need a reader for these files, you should download the free Adobe Reader.

NOT FOR NAVIGATION. Please procure official charts for flight.
FAA instrument procedures published for use from 02 January 2020 at 0901Z to 30 January 2020 at 0900Z.

 
IAPs - Instrument Approach Procedures
RNAV (GPS) RWY 17   download (131KB)
RNAV (GPS) RWY 35   download (136KB)

Other nearby airports with instrument procedures:

KBKN - Blackwell-Tonkawa Municipal Airport (19 nm E)
KWDG - Enid Woodring Regional Airport (25 nm S)
KANY - Anthony Municipal Airport (27 nm NW)
KEND - Vance Air Force Base (28 nm S)
KPNC - Ponca City Regional Airport (31 nm E)
 
Loc | Ops | Rwys | IFR | FBO | Links
Com | Nav | Svcs | Stats | Notes
Area around O53 (Medford Municipal Airport)
 
Road maps at: MapQuest Bing Google
 
Aerial photo
WARNING: Photo may not be current or correct
Aerial photo of O53 (Medford Municipal Airport)
Do you have a better or more recent aerial photo of Medford Municipal Airport that you would like to share? If so, please send us your photo.

 
Sectional chart

 
Airport distance calculator
Flying to Medford Municipal Airport? Find the distance to fly.

From to O53

Sunrise and sunset
Times for 25-Jan-2020
 Local
(UTC-6)
 Zulu
(UTC)
Morning civil twilight07:1213:12
Sunrise07:3913:39
Sunset17:4823:48
Evening civil twilight18:1500:15

Current date and time
Zulu (UTC)  25-Jan-2020 20:50:39
Local (UTC-6)  25-Jan-2020 14:50:39
 
METAR
KBKN 
19nm E 
252035Z AUTO 12007KT 10SM CLR 11/04 A2999 RMK AO2
KWDG 
25nm S 
251945Z 12008KT 10SM SCT180 10/03 A2997
KEND 
30nm S 
251956Z AUTO 13005KT 10SM CLR 12/03 A2995 RMK AO2 SLP148 T01190034 $
KPNC 
31nm E 
251953Z AUTO 12006KT 10SM CLR 11/01 A2998 RMK AO2 SLP156 T01060011
TAF
KPNC 
31nm E 
251736Z 2518/2618 14010KT P6SM BKN250 FM260000 VRB03KT P6SM BKN100 FM261300 32007KT P6SM SCT250
NOTAMs
Click for the latest NOTAMs
NOTAMs are issued by the DoD/FAA and will open in a separate window not controlled by AirNav.

 

 
 

FBO, Fuel Providers, and Aircraft Ground Support

  
 Business Name 
 
 Contact 
 
 Services / Description 
 
Fuel Prices
 
Comments
  
Andy Deterding Ag Aviation 580-532-4483
no information available

If you are affiliated with Andy Deterding Ag Aviation and would like to show here your services, contact info, web link, logo, and more, click here
100LL
SS $4.75 
 Updated 07-Jan-2020
 
   write
SS=Self service
Update Fuel Prices
 

Would you like to see your business listed on this page?

 If your business provides an interesting product or service to pilots, flight crews, aircraft, or users of the Medford Municipal Airport, you should consider listing it here.  To start the listing process, click on the button below
 
Add a business
 

Other Pages about Medford Municipal Airport

Mid Air Collision Avoidance for KEND (Vance Air Force Base)
 
Update a link
 
Copyright © AirNav, LLC. All rights reserved. Privacy Policy  Contact